| time (UTC) | temp F | wind direction | speed knots | gust knots | rain 1hr in | rain 24hr in | rain mn in | humidity % | barometer mb |
| 20260507153738 | 58 | 24 | 7.0 | 13.0 | 0.00 | 0.00 | 0.00 | 61 | 1017.0 |
| 20260507153238 | 58 | 16 | 7.8 | 11.3 | 0.00 | 0.00 | 0.00 | 61 | 1017.0 |
| 20260507152738 | 58 | 36 | 9.6 | 15.6 | 0.00 | 0.00 | 0.00 | 60 | 1017.0 |
| 20260507152237 | 58 | 31 | 7.8 | 13.9 | 0.00 | 0.00 | 0.00 | 61 | 1017.0 |
| 20260507151737 | 58 | 27 | 7.8 | 11.3 | 0.00 | 0.00 | 0.00 | 60 | 1017.0 |
| 20260507151237 | 58 | 27 | 7.8 | 12.2 | 0.00 | 0.00 | 0.00 | 62 | 1017.0 |
| 20260507150737 | 58 | 33 | 7.8 | 11.3 | 0.00 | 0.00 | 0.00 | 62 | 1017.0 |
| 20260507150239 | 57 | 32 | 9.6 | 12.2 | 0.00 | 0.00 | 0.00 | 62 | 1017.0 |
| 20260507145738 | 57 | 18 | 7.8 | 11.3 | 0.00 | 0.00 | 0.00 | 64 | 1017.0 |
| 20260507145238 | 56 | 16 | 7.8 | 13.0 | 0.00 | 0.00 | 0.00 | 65 | 1018.0 |
| 20260507144737 | 56 | 7 | 7.0 | 13.0 | 0.00 | 0.00 | 0.00 | 67 | 1018.0 |
| 20260507144237 | 56 | 33 | 8.7 | 12.2 | 0.00 | 0.00 | 0.00 | 68 | 1018.0 |
| 20260507143738 | 55 | 34 | 7.8 | 12.2 | 0.00 | 0.00 | 0.00 | 68 | 1018.0 |
| 20260507143238 | 55 | 33 | 9.6 | 13.0 | 0.00 | 0.00 | 0.00 | 69 | 1018.0 |
| 20260507142738 | 55 | 36 | 7.0 | 8.7 | 0.00 | 0.00 | 0.00 | 71 | 1018.0 |
| 20260507142237 | 54 | 38 | 7.8 | 11.3 | 0.00 | 0.00 | 0.00 | 71 | 1018.0 |
| 20260507141738 | 54 | 30 | 7.0 | 10.4 | 0.00 | 0.00 | 0.00 | 71 | 1018.0 |
| 20260507141238 | 54 | 34 | 7.0 | 12.2 | 0.00 | 0.00 | 0.00 | 71 | 1018.0 |
| 20260507140739 | 54 | 36 | 5.2 | 9.6 | 0.00 | 0.00 | 0.00 | 73 | 1018.0 |
| 20260507140237 | 53 | 34 | 5.2 | 9.6 | 0.00 | 0.00 | 0.00 | 73 | 1018.0 |
| 20260507135737 | 53 | 38 | 4.3 | 7.8 | 0.00 | 0.00 | 0.00 | 75 | 1018.0 |
| 20260507135238 | 53 | 19 | 6.1 | 7.8 | 0.00 | 0.00 | 0.00 | 75 | 1018.0 |
| 20260507134737 | 53 | 23 | 6.1 | 9.6 | 0.00 | 0.00 | 0.00 | 75 | 1018.0 |
| 20260507134238 | 52 | 29 | 4.3 | 9.6 | 0.00 | 0.00 | 0.00 | 78 | 1018.0 |
| 20260507133738 | 52 | 16 | 4.3 | 7.0 | 0.00 | 0.00 | 0.00 | 78 | 1018.0 |
| 20260507133238 | 51 | 25 | 5.2 | 8.7 | 0.00 | 0.00 | 0.00 | 79 | 1018.0 |
| 20260507132738 | 51 | 33 | 4.3 | 6.1 | 0.00 | 0.00 | 0.00 | 80 | 1018.0 |
| 20260507132238 | 51 | 32 | 4.3 | 6.1 | 0.00 | 0.00 | 0.00 | 81 | 1018.0 |
| 20260507131737 | 50 | 38 | 5.2 | 7.8 | 0.00 | 0.00 | 0.00 | 82 | 1018.0 |
| 20260507131237 | 50 | 34 | 3.5 | 5.2 | 0.00 | 0.00 | 0.00 | 84 | 1018.0 |
| 20260507130737 | 49 | 31 | 6.1 | 8.7 | 0.00 | 0.00 | 0.00 | 84 | 1018.0 |
| 20260507130241 | 49 | 41 | 5.2 | 8.7 | 0.00 | 0.00 | 0.00 | 85 | 1018.0 |
| 20260507125737 | 49 | 16 | 4.3 | 6.1 | 0.00 | 0.00 | 0.00 | 85 | 1018.0 |
| 20260507125237 | 48 | 36 | 5.2 | 8.7 | 0.00 | 0.00 | 0.00 | 86 | 1018.0 |
| 20260507124738 | 48 | 39 | 6.1 | 8.7 | 0.00 | 0.00 | 0.00 | 86 | 1018.0 |
| 20260507124237 | 47 | 36 | 3.5 | 5.2 | 0.00 | 0.00 | 0.00 | 87 | 1018.0 |
| 20260507123737 | 47 | 34 | 3.5 | 5.2 | 0.00 | 0.00 | 0.00 | 87 | 1018.0 |
| 20260507123238 | 47 | 38 | 3.5 | 4.3 | 0.00 | 0.00 | 0.00 | 88 | 1018.0 |
| 20260507122737 | 47 | 38 | 2.6 | 4.3 | 0.00 | 0.00 | 0.00 | 88 | 1018.0 |
| 20260507122237 | 46 | 42 | 1.7 | 3.5 | 0.00 | 0.00 | 0.00 | 88 | 1018.0 |
| 20260507121737 | 46 | 44 | 2.6 | 9.6 | 0.00 | 0.00 | 0.00 | 89 | 1018.0 |
| 20260507121239 | 45 | 15 | 1.7 | 2.6 | 0.00 | 0.00 | 0.00 | 90 | 1018.0 |
| 20260507120738 | 45 | 40 | 2.6 | 3.5 | 0.00 | 0.00 | 0.00 | 91 | 1018.0 |
| 20260507120237 | 44 | 40 | 2.6 | 3.5 | 0.00 | 0.00 | 0.00 | 91 | 1018.0 |
| 20260507115737 | 44 | 34 | 1.7 | 2.6 | 0.00 | 0.00 | 0.00 | 92 | 1018.0 |
| 20260507115237 | 44 | 42 | 1.7 | 1.7 | 0.00 | 0.00 | 0.00 | 92 | 1018.0 |
| 20260507114737 | 44 | 36 | 1.7 | 3.5 | 0.00 | 0.00 | 0.00 | 93 | 1018.0 |
| 20260507114237 | 44 | 43 | 2.6 | 7.0 | 0.00 | 0.00 | 0.00 | 93 | 1018.0 |
| 20260507113737 | 44 | 43 | 2.6 | 7.0 | 0.00 | 0.00 | 0.00 | 93 | 1018.0 |
| 20260507113237 | 44 | 43 | 1.7 | 1.7 | 0.00 | 0.00 | 0.00 | 94 | 1018.0 |
| 20260507112739 | 44 | 34 | 1.7 | 2.6 | 0.00 | 0.00 | 0.00 | 94 | 1018.0 |
| 20260507112237 | 44 | 26 | 1.7 | 1.7 | 0.00 | 0.00 | 0.00 | 93 | 1018.0 |
| 20260507111737 | 44 | 39 | 1.7 | 2.6 | 0.00 | 0.00 | 0.00 | 93 | 1018.0 |
| 20260507111238 | 44 | 41 | 0.9 | 1.7 | 0.00 | 0.00 | 0.00 | 92 | 1018.0 |
| 20260507110738 | 44 | 23 | 2.6 | 2.6 | 0.00 | 0.00 | 0.00 | 92 | 1018.0 |
| 20260507110239 | 45 | 56 | 1.7 | 1.7 | 0.00 | 0.00 | 0.00 | 91 | 1018.0 |
| 20260507105737 | 45 | 35 | 1.7 | 2.6 | 0.00 | 0.00 | 0.00 | 91 | 1018.0 |
| 20260507105237 | 45 | 347 | 1.7 | 1.7 | 0.00 | 0.00 | 0.00 | 90 | 1018.0 |
| 20260507104737 | 45 | 39 | 1.7 | 2.6 | 0.00 | 0.00 | 0.00 | 90 | 1018.0 |
| 20260507104238 | 45 | 39 | 1.7 | 2.6 | 0.00 | 0.00 | 0.00 | 90 | 1018.0 |
| 20260507103744 | 45 | 37 | 1.7 | 2.6 | 0.00 | 0.00 | 0.00 | 90 | 1018.0 |
| 20260507103237 | 45 | 48 | 2.6 | 5.2 | 0.00 | 0.00 | 0.00 | 90 | 1018.0 |
| 20260507102738 | 45 | 41 | 0.9 | 1.7 | 0.00 | 0.00 | 0.00 | 90 | 1018.0 |
| 20260507102237 | 45 | 29 | 1.7 | 1.7 | 0.00 | 0.00 | 0.00 | 90 | 1018.0 |
| 20260507101737 | 46 | 37 | 1.7 | 2.6 | 0.00 | 0.00 | 0.00 | 89 | 1018.0 |
| 20260507101237 | 46 | 39 | 1.7 | 2.6 | 0.00 | 0.00 | 0.00 | 89 | 1018.0 |
| 20260507100737 | 46 | 42 | 1.7 | 1.7 | 0.00 | 0.00 | 0.00 | 88 | 1018.0 |
| 20260507100238 | 46 | 27 | 1.7 | 1.7 | 0.00 | 0.00 | 0.00 | 88 | 1018.0 |
| 20260507095737 | 46 | 44 | 1.7 | 2.6 | 0.00 | 0.00 | 0.00 | 88 | 1018.0 |
| 20260507095237 | 46 | 15 | 1.7 | 1.7 | 0.00 | 0.00 | 0.00 | 88 | 1018.0 |
| 20260507094737 | 46 | 39 | 1.7 | 1.7 | 0.00 | 0.00 | 0.00 | 88 | 1018.0 |
| 20260507094238 | 46 | 23 | 1.7 | 1.7 | 0.00 | 0.00 | 0.00 | 87 | 1019.0 |
| 20260507093740 | 47 | 33 | 1.7 | 1.7 | 0.00 | 0.00 | 0.00 | 86 | 1019.0 |
| 20260507093238 | 47 | 23 | 1.7 | 2.6 | 0.00 | 0.00 | 0.00 | 86 | 1019.0 |
| 20260507092737 | 47 | 40 | 1.7 | 1.7 | 0.00 | 0.00 | 0.00 | 86 | 1019.0 |
| 20260507092238 | 47 | 41 | 1.7 | 2.6 | 0.00 | 0.00 | 0.00 | 86 | 1019.0 |
| 20260507091737 | 47 | 16 | 1.7 | 1.7 | 0.00 | 0.00 | 0.00 | 85 | 1019.0 |
| 20260507091237 | 48 | 38 | 1.7 | 2.6 | 0.00 | 0.00 | 0.00 | 85 | 1019.0 |
| 20260507090738 | 48 | 15 | 2.6 | 3.5 | 0.00 | 0.00 | 0.00 | 86 | 1019.0 |
| 20260507090237 | 48 | 17 | 2.6 | 2.6 | 0.00 | 0.00 | 0.00 | 85 | 1019.0 |
| 20260507085737 | 49 | 39 | 2.6 | 3.5 | 0.00 | 0.00 | 0.00 | 84 | 1019.0 |
| 20260507085237 | 49 | 37 | 3.5 | 4.3 | 0.00 | 0.00 | 0.00 | 84 | 1019.0 |
| 20260507084737 | 49 | 36 | 3.5 | 3.5 | 0.00 | 0.00 | 0.00 | 84 | 1019.0 |
| 20260507084237 | 49 | 19 | 3.5 | 4.3 | 0.00 | 0.00 | 0.00 | 83 | 1019.0 |
| 20260507083737 | 50 | 35 | 3.5 | 4.3 | 0.00 | 0.00 | 0.00 | 83 | 1019.0 |
| 20260507083237 | 50 | 12 | 3.5 | 6.1 | 0.00 | 0.00 | 0.00 | 82 | 1019.0 |
| 20260507082738 | 50 | 349 | 3.5 | 4.3 | 0.00 | 0.00 | 0.00 | 83 | 1019.0 |
| 20260507082238 | 50 | 337 | 4.3 | 5.2 | 0.00 | 0.00 | 0.00 | 83 | 1019.0 |
| 20260507081737 | 50 | 14 | 3.5 | 3.5 | 0.00 | 0.00 | 0.00 | 80 | 1019.0 |
| 20260507081238 | 51 | 4 | 3.5 | 4.3 | 0.00 | 0.00 | 0.00 | 80 | 1019.0 |
| 20260507080739 | 51 | 16 | 2.6 | 3.5 | 0.00 | 0.00 | 0.00 | 80 | 1019.0 |
| 20260507080237 | 51 | 30 | 3.5 | 3.5 | 0.00 | 0.00 | 0.00 | 80 | 1019.0 |
| 20260507075737 | 51 | 11 | 3.5 | 5.2 | 0.00 | 0.00 | 0.00 | 81 | 1019.0 |
| 20260507075238 | 51 | 25 | 3.5 | 4.3 | 0.00 | 0.00 | 0.00 | 79 | 1019.0 |
| 20260507074737 | 51 | 15 | 1.7 | 3.5 | 0.00 | 0.00 | 0.00 | 80 | 1019.0 |
| 20260507074239 | 51 | 34 | 3.5 | 3.5 | 0.00 | 0.00 | 0.00 | 80 | 1019.0 |
| 20260507073738 | 51 | 7 | 3.5 | 3.5 | 0.00 | 0.00 | 0.00 | 80 | 1019.0 |
| 20260507073238 | 51 | 19 | 3.5 | 4.3 | 0.00 | 0.00 | 0.00 | 81 | 1019.0 |
| 20260507072737 | 51 | 13 | 3.5 | 4.3 | 0.00 | 0.00 | 0.00 | 80 | 1019.0 |
| 20260507072237 | 51 | 356 | 4.3 | 9.6 | 0.00 | 0.00 | 0.00 | 79 | 1019.0 |
| 20260507071737 | 51 | 1 | 3.5 | 4.3 | 0.00 | 0.00 | 0.00 | 79 | 1019.0 |
| 20260507071237 | 51 | 4 | 3.5 | 5.2 | 0.00 | 0.00 | 0.00 | 78 | 1019.0 |
| 20260507070737 | 51 | 351 | 3.5 | 5.2 | 0.00 | 0.00 | 0.00 | 78 | 1019.0 |
| 20260507070238 | 51 | 2 | 3.5 | 5.2 | 0.00 | 0.00 | 0.00 | 79 | 1019.0 |
| 20260507065737 | 51 | 13 | 2.6 | 4.3 | 0.00 | 0.00 | 0.00 | 78 | 1019.0 |
| 20260507065237 | 51 | 1 | 2.6 | 3.5 | 0.00 | 0.00 | 0.00 | 78 | 1019.0 |
| 20260507064737 | 51 | 27 | 2.6 | 3.5 | 0.00 | 0.00 | 0.00 | 79 | 1019.0 |
| 20260507064237 | 51 | 23 | 2.6 | 4.3 | 0.00 | 0.00 | 0.00 | 81 | 1019.0 |
| 20260507063247 | 52 | 15 | 3.5 | 4.3 | 0.00 | 0.00 | 0.00 | 80 | 1019.0 |
| 20260507062738 | 52 | 356 | 3.5 | 4.3 | 0.00 | 0.00 | 0.00 | 80 | 1019.0 |
| 20260507062238 | 52 | 337 | 3.5 | 5.2 | 0.00 | 0.00 | 0.00 | 79 | 1019.0 |
| 20260507061737 | 52 | 340 | 3.5 | 3.5 | 0.00 | 0.00 | 0.00 | 78 | 1019.0 |
| 20260507061238 | 52 | 18 | 2.6 | 3.5 | 0.00 | 0.00 | 0.00 | 77 | 1019.0 |
| 20260507060738 | 52 | 9 | 3.5 | 6.1 | 0.00 | 0.00 | 0.00 | 76 | 1019.0 |
| 20260507060237 | 52 | 339 | 2.6 | 3.5 | 0.00 | 0.00 | 0.00 | 75 | 1019.0 |
| 20260507055737 | 52 | 304 | 2.6 | 4.3 | 0.00 | 0.00 | 0.00 | 75 | 1019.0 |
| 20260507055237 | 52 | 10 | 2.6 | 4.3 | 0.00 | 0.00 | 0.00 | 75 | 1019.0 |
| 20260507054738 | 52 | 10 | 2.6 | 3.5 | 0.00 | 0.00 | 0.00 | 78 | 1019.0 |
| 20260507054238 | 52 | 354 | 2.6 | 3.5 | 0.00 | 0.00 | 0.00 | 78 | 1019.0 |
| 20260507053737 | 52 | 350 | 2.6 | 3.5 | 0.00 | 0.00 | 0.00 | 77 | 1019.0 |
| 20260507053238 | 52 | 355 | 3.5 | 4.3 | 0.00 | 0.00 | 0.00 | 78 | 1019.0 |
| 20260507052737 | 52 | 329 | 3.5 | 4.3 | 0.00 | 0.00 | 0.00 | 79 | 1020.0 |
| 20260507052237 | 53 | 339 | 3.5 | 5.2 | 0.00 | 0.00 | 0.00 | 80 | 1020.0 |
| 20260507051739 | 53 | 328 | 3.5 | 4.3 | 0.00 | 0.00 | 0.00 | 77 | 1020.0 |
| 20260507051237 | 53 | 337 | 2.6 | 4.3 | 0.00 | 0.00 | 0.00 | 76 | 1019.0 |
| 20260507050738 | 53 | 6 | 2.6 | 3.5 | 0.00 | 0.00 | 0.00 | 72 | 1019.0 |
| 20260507050237 | 53 | 5 | 2.6 | 4.3 | 0.00 | 0.00 | 0.00 | 72 | 1019.0 |
| 20260507045738 | 53 | 22 | 1.7 | 3.5 | 0.00 | 0.00 | 0.28 | 70 | 1019.0 |
| 20260507045237 | 54 | 13 | 2.6 | 3.5 | 0.00 | 0.00 | 0.28 | 68 | 1019.0 |
| 20260507044738 | 54 | 359 | 3.5 | 4.3 | 0.00 | 0.00 | 0.28 | 70 | 1019.0 |
| 20260507044238 | 54 | 4 | 1.7 | 3.5 | 0.00 | 0.00 | 0.28 | 67 | 1019.0 |
| 20260507043737 | 54 | 14 | 2.6 | 3.5 | 0.00 | 0.00 | 0.28 | 66 | 1019.0 |
| 20260507043239 | 54 | 16 | 2.6 | 3.5 | 0.00 | 0.00 | 0.28 | 68 | 1019.0 |
| 20260507042737 | 54 | 0 | 3.5 | 4.3 | 0.00 | 0.00 | 0.28 | 68 | 1019.0 |
| 20260507042237 | 53 | 1 | 2.6 | 4.3 | 0.00 | 0.00 | 0.28 | 69 | 1019.0 |
| 20260507041737 | 53 | 6 | 2.6 | 3.5 | 0.00 | 0.00 | 0.28 | 72 | 1019.0 |
| 20260507041238 | 53 | 9 | 2.6 | 3.5 | 0.00 | 0.00 | 0.28 | 71 | 1019.0 |
| 20260507040737 | 53 | 15 | 2.6 | 3.5 | 0.00 | 0.00 | 0.28 | 72 | 1019.0 |
| 20260507040239 | 53 | 0 | 2.6 | 3.5 | 0.00 | 0.00 | 0.28 | 78 | 1019.0 |
| 20260507035740 | 53 | 3 | 1.7 | 2.6 | 0.00 | 0.00 | 0.28 | 76 | 1019.0 |
| 20260507035238 | 53 | 337 | 1.7 | 2.6 | 0.00 | 0.00 | 0.28 | 76 | 1019.0 |
| 20260507034738 | 54 | 16 | 2.6 | 3.5 | 0.00 | 0.00 | 0.28 | 73 | 1019.0 |
| 20260507034239 | 54 | 19 | 1.7 | 3.5 | 0.00 | 0.00 | 0.28 | 71 | 1020.0 |
| 20260507033738 | 54 | 24 | 1.7 | 2.6 | 0.00 | 0.00 | 0.28 | 70 | 1019.0 |
| 20260507033237 | 55 | 12 | 1.7 | 3.5 | 0.00 | 0.00 | 0.28 | 69 | 1020.0 |
| 20260507032738 | 55 | 11 | 2.6 | 3.5 | 0.00 | 0.00 | 0.28 | 68 | 1019.0 |
| 20260507032238 | 55 | 7 | 2.6 | 3.5 | 0.00 | 0.00 | 0.28 | 70 | 1019.0 |
| 20260507031737 | 55 | 21 | 1.7 | 2.6 | 0.00 | 0.00 | 0.28 | 68 | 1019.0 |
| 20260507031238 | 55 | 24 | 1.7 | 2.6 | 0.00 | 0.00 | 0.28 | 67 | 1019.0 |
| 20260507030737 | 55 | 32 | 1.7 | 3.5 | 0.00 | 0.00 | 0.28 | 64 | 1019.0 |
| 20260507030238 | 55 | 13 | 2.6 | 3.5 | 0.00 | 0.00 | 0.28 | 61 | 1019.0 |
| 20260507025737 | 55 | 18 | 1.7 | 2.6 | 0.00 | 0.00 | 0.28 | 60 | 1019.0 |
| 20260507025237 | 55 | 7 | 2.6 | 3.5 | 0.00 | 0.00 | 0.28 | 60 | 1019.0 |
| 20260507024737 | 55 | 22 | 2.6 | 3.5 | 0.00 | 0.00 | 0.28 | 60 | 1019.0 |
| 20260507024238 | 56 | 19 | 2.6 | 3.5 | 0.00 | 0.00 | 0.28 | 61 | 1019.0 |
| 20260507023737 | 56 | 19 | 1.7 | 2.6 | 0.00 | 0.00 | 0.28 | 61 | 1019.0 |
| 20260507023237 | 56 | 13 | 2.6 | 3.5 | 0.00 | 0.00 | 0.28 | 57 | 1019.0 |
| 20260507022737 | 56 | 10 | 2.6 | 3.5 | 0.00 | 0.00 | 0.28 | 56 | 1019.0 |
| 20260507022237 | 56 | 10 | 2.6 | 3.5 | 0.00 | 0.00 | 0.28 | 56 | 1019.0 |
| 20260507021737 | 56 | 35 | 3.5 | 4.3 | 0.00 | 0.00 | 0.28 | 55 | 1019.0 |
| 20260507021237 | 56 | 31 | 2.6 | 3.5 | 0.00 | 0.00 | 0.28 | 55 | 1019.0 |
| 20260507020744 | 56 | 27 | 3.5 | 6.1 | 0.00 | 0.00 | 0.28 | 55 | 1019.0 |
| 20260507020237 | 56 | 357 | 1.7 | 3.5 | 0.00 | 0.00 | 0.28 | 57 | 1019.0 |
| 20260507015738 | 56 | 6 | 2.6 | 3.5 | 0.00 | 0.00 | 0.28 | 55 | 1019.0 |
| 20260507015237 | 56 | 18 | 2.6 | 7.0 | 0.00 | 0.00 | 0.28 | 54 | 1019.0 |
| 20260507014738 | 56 | 19 | 3.5 | 5.2 | 0.00 | 0.00 | 0.28 | 54 | 1018.0 |
| 20260507014239 | 57 | 0 | 1.7 | 3.5 | 0.00 | 0.00 | 0.28 | 56 | 1018.0 |
| 20260507013737 | 57 | 354 | 1.7 | 3.5 | 0.00 | 0.00 | 0.28 | 56 | 1018.0 |
| 20260507013238 | 57 | 21 | 1.7 | 2.6 | 0.00 | 0.00 | 0.28 | 55 | 1018.0 |
| 20260507012737 | 57 | 27 | 2.6 | 3.5 | 0.00 | 0.00 | 0.28 | 55 | 1018.0 |
| 20260507012237 | 57 | 26 | 1.7 | 3.5 | 0.00 | 0.00 | 0.28 | 55 | 1018.0 |
| 20260507011738 | 57 | 34 | 3.5 | 5.2 | 0.00 | 0.00 | 0.28 | 54 | 1018.0 |
| 20260507011238 | 57 | 359 | 1.7 | 3.5 | 0.00 | 0.00 | 0.28 | 55 | 1018.0 |
| 20260507010737 | 57 | 31 | 2.6 | 7.0 | 0.00 | 0.00 | 0.28 | 53 | 1018.0 |
| 20260507010237 | 57 | 36 | 3.5 | 7.0 | 0.00 | 0.00 | 0.28 | 53 | 1018.0 |
| 20260507005737 | 57 | 7 | 1.7 | 2.6 | 0.00 | 0.00 | 0.28 | 53 | 1018.0 |
| 20260507005238 | 58 | 346 | 1.7 | 3.5 | 0.00 | 0.00 | 0.28 | 53 | 1018.0 |
| 20260507004738 | 58 | 313 | 2.6 | 3.5 | 0.00 | 0.00 | 0.28 | 53 | 1018.0 |
| 20260507004237 | 58 | 30 | 1.7 | 7.8 | 0.00 | 0.00 | 0.28 | 53 | 1018.0 |
| 20260507003737 | 58 | 323 | 1.7 | 2.6 | 0.00 | 0.00 | 0.28 | 55 | 1018.0 |
| 20260507003237 | 58 | 0 | 1.7 | 4.3 | 0.00 | 0.00 | 0.28 | 53 | 1018.0 |
| 20260507002738 | 58 | 26 | 3.5 | 6.1 | 0.00 | 0.00 | 0.28 | 52 | 1018.0 |
| 20260507002238 | 58 | 59 | 4.3 | 7.0 | 0.00 | 0.00 | 0.28 | 52 | 1018.0 |
| 20260507001737 | 58 | 303 | 1.7 | 2.6 | 0.00 | 0.00 | 0.28 | 52 | 1018.0 |
| 20260507001238 | 58 | 326 | 1.7 | 3.5 | 0.00 | 0.00 | 0.28 | 52 | 1018.0 |
| 20260507000737 | 58 | 345 | 1.7 | 3.5 | 0.00 | 0.00 | 0.28 | 53 | 1018.0 |
| 20260507000237 | 58 | 13 | 4.3 | 7.0 | 0.00 | 0.00 | 0.28 | 51 | 1018.0 |
| 20260506235737 | 58 | 310 | 2.6 | 4.3 | 0.00 | 0.00 | 0.28 | 52 | 1018.0 |
| 20260506235237 | 58 | 1 | 2.6 | 3.5 | 0.00 | 0.00 | 0.28 | 52 | 1018.0 |
| 20260506234738 | 58 | 352 | 3.5 | 3.5 | 0.00 | 0.00 | 0.28 | 51 | 1018.0 |
| 20260506234238 | 59 | 15 | 3.5 | 6.1 | 0.00 | 0.00 | 0.28 | 50 | 1018.0 |
| 20260506233737 | 59 | 9 | 2.6 | 3.5 | 0.00 | 0.00 | 0.28 | 52 | 1018.0 |
| 20260506233238 | 59 | 25 | 5.2 | 7.0 | 0.00 | 0.00 | 0.28 | 50 | 1018.0 |
| 20260506232737 | 59 | 38 | 4.3 | 8.7 | 0.00 | 0.00 | 0.28 | 50 | 1018.0 |
| 20260506232237 | 58 | 28 | 6.1 | 8.7 | 0.00 | 0.00 | 0.28 | 50 | 1018.0 |
| 20260506231737 | 58 | 342 | 5.2 | 7.8 | 0.00 | 0.00 | 0.28 | 51 | 1018.0 |
| 20260506231237 | 58 | 26 | 5.2 | 7.8 | 0.00 | 0.00 | 0.28 | 50 | 1018.0 |
| 20260506230737 | 58 | 25 | 2.6 | 6.1 | 0.00 | 0.00 | 0.28 | 52 | 1018.0 |
| 20260506230237 | 59 | 36 | 5.2 | 12.2 | 0.00 | 0.00 | 0.28 | 51 | 1018.0 |
| 20260506225737 | 59 | 15 | 4.3 | 9.6 | 0.00 | 0.00 | 0.28 | 51 | 1018.0 |
| 20260506225238 | 59 | 46 | 3.5 | 7.0 | 0.00 | 0.00 | 0.28 | 49 | 1018.0 |
| 20260506224738 | 59 | 43 | 2.6 | 6.1 | 0.00 | 0.00 | 0.28 | 50 | 1018.0 |
| 20260506224238 | 59 | 12 | 2.6 | 5.2 | 0.00 | 0.00 | 0.28 | 48 | 1018.0 |
| 20260506223737 | 59 | 36 | 4.3 | 8.7 | 0.00 | 0.00 | 0.28 | 47 | 1018.0 |
| 20260506223237 | 59 | 36 | 4.3 | 5.2 | 0.00 | 0.00 | 0.28 | 49 | 1018.0 |
| 20260506222738 | 59 | 35 | 3.5 | 6.1 | 0.00 | 0.00 | 0.28 | 49 | 1018.0 |
| 20260506222238 | 59 | 34 | 2.6 | 4.3 | 0.00 | 0.00 | 0.28 | 49 | 1018.0 |
| 20260506221737 | 60 | 38 | 5.2 | 11.3 | 0.00 | 0.00 | 0.28 | 48 | 1017.0 |
| 20260506221238 | 60 | 50 | 3.5 | 7.0 | 0.00 | 0.00 | 0.28 | 49 | 1017.0 |
| 20260506220738 | 60 | 353 | 3.5 | 7.0 | 0.00 | 0.00 | 0.28 | 49 | 1017.0 |
| 20260506220238 | 59 | 34 | 3.5 | 7.8 | 0.00 | 0.00 | 0.28 | 47 | 1018.0 |
| 20260506215737 | 59 | 14 | 3.5 | 6.1 | 0.00 | 0.00 | 0.28 | 47 | 1018.0 |
| 20260506215237 | 59 | 26 | 3.5 | 6.1 | 0.00 | 0.00 | 0.28 | 48 | 1018.0 |
| 20260506214737 | 59 | 22 | 3.5 | 5.2 | 0.00 | 0.00 | 0.28 | 50 | 1018.0 |
| 20260506214237 | 60 | 350 | 3.5 | 6.1 | 0.00 | 0.00 | 0.28 | 49 | 1018.0 |
| 20260506213737 | 60 | 26 | 4.3 | 6.1 | 0.00 | 0.00 | 0.28 | 47 | 1018.0 |
| 20260506213238 | 61 | 36 | 2.6 | 4.3 | 0.00 | 0.00 | 0.28 | 47 | 1018.0 |
| 20260506212737 | 61 | 49 | 1.7 | 4.3 | 0.00 | 0.00 | 0.28 | 50 | 1018.0 |
| 20260506212237 | 61 | 40 | 6.1 | 16.5 | 0.00 | 0.00 | 0.28 | 47 | 1018.0 |
| 20260506211737 | 61 | 40 | 6.1 | 14.8 | 0.00 | 0.00 | 0.28 | 49 | 1018.0 |
| 20260506211237 | 61 | 42 | 4.3 | 13.9 | 0.00 | 0.00 | 0.28 | 50 | 1018.0 |
| 20260506210738 | 62 | 36 | 5.2 | 14.8 | 0.00 | 0.00 | 0.28 | 48 | 1018.0 |
| 20260506210238 | 62 | 31 | 5.2 | 7.8 | 0.00 | 0.00 | 0.28 | 47 | 1018.0 |
| 20260506205737 | 61 | 47 | 2.6 | 5.2 | 0.00 | 0.00 | 0.28 | 46 | 1018.0 |
| 20260506205238 | 61 | 50 | 5.2 | 11.3 | 0.00 | 0.00 | 0.28 | 49 | 1018.0 |
| 20260506204737 | 61 | 38 | 5.2 | 9.6 | 0.00 | 0.00 | 0.28 | 49 | 1018.0 |
| 20260506204237 | 60 | 50 | 3.5 | 10.4 | 0.00 | 0.00 | 0.28 | 51 | 1018.0 |
| 20260506203737 | 60 | 34 | 4.3 | 10.4 | 0.00 | 0.00 | 0.28 | 49 | 1019.0 |
| 20260506203238 | 61 | 44 | 7.0 | 14.8 | 0.00 | 0.00 | 0.28 | 50 | 1018.0 |
| 20260506202737 | 60 | 25 | 2.6 | 5.2 | 0.00 | 0.00 | 0.28 | 49 | 1019.0 |
| 20260506202238 | 61 | 42 | 3.5 | 4.3 | 0.00 | 0.00 | 0.28 | 50 | 1019.0 |
| 20260506201737 | 61 | 52 | 7.0 | 12.2 | 0.00 | 0.00 | 0.28 | 49 | 1019.0 |
| 20260506201237 | 60 | 46 | 3.5 | 7.8 | 0.00 | 0.00 | 0.28 | 49 | 1019.0 |
| 20260506200737 | 59 | 30 | 3.5 | 7.8 | 0.00 | 0.00 | 0.28 | 50 | 1019.0 |
| 20260506200238 | 59 | 350 | 4.3 | 9.6 | 0.00 | 0.00 | 0.28 | 51 | 1019.0 |
| 20260506195737 | 59 | 31 | 2.6 | 4.3 | 0.00 | 0.00 | 0.28 | 51 | 1019.0 |
| 20260506195237 | 58 | 29 | 4.3 | 10.4 | 0.00 | 0.00 | 0.28 | 51 | 1019.0 |
| 20260506194737 | 59 | 47 | 6.1 | 9.6 | 0.00 | 0.00 | 0.28 | 52 | 1019.0 |
| 20260506175238 | 56 | 52 | 4.3 | 7.8 | 0.00 | 0.00 | 0.28 | 57 | 1020.0 |
| 20260506174738 | 56 | 40 | 6.1 | 8.7 | 0.00 | 0.00 | 0.28 | 58 | 1020.0 |
| 20260506172737 | 55 | 30 | 7.8 | 14.8 | 0.00 | 0.00 | 0.28 | 59 | 1020.0 |
| 20260506172244 | 55 | 41 | 3.5 | 6.1 | 0.00 | 0.00 | 0.28 | 63 | 1020.0 |
| 20260506171739 | 54 | 34 | 3.5 | 5.2 | 0.00 | 0.00 | 0.28 | 67 | 1020.0 |
| 20260506171238 | 54 | 39 | 4.3 | 11.3 | 0.00 | 0.00 | 0.28 | 66 | 1020.0 |
| 20260506170737 | 53 | 40 | 4.3 | 11.3 | 0.00 | 0.00 | 0.28 | 67 | 1020.0 |
| 20260506170237 | 53 | 39 | 5.2 | 13.0 | 0.00 | 0.00 | 0.28 | 69 | 1020.0 |
| 20260506165737 | 53 | 31 | 5.2 | 7.0 | 0.00 | 0.00 | 0.28 | 69 | 1020.0 |
| 20260506165237 | 52 | 39 | 6.1 | 18.2 | 0.00 | 0.00 | 0.28 | 71 | 1020.0 |
| 20260506164238 | 52 | 34 | 6.1 | 17.4 | 0.00 | 0.00 | 0.28 | 71 | 1020.0 |
| 20260506163737 | 52 | 35 | 4.3 | 7.0 | 0.00 | 0.00 | 0.28 | 71 | 1020.0 |
| 20260506163238 | 52 | 49 | 14.8 | 24.3 | 0.00 | 0.00 | 0.28 | 73 | 1020.0 |
| 20260506162738 | 51 | 41 | 10.4 | 21.7 | 0.00 | 0.00 | 0.28 | 73 | 1020.0 |
| 20260506161737 | 51 | 359 | 5.2 | 9.6 | 0.00 | 0.00 | 0.28 | 76 | 1020.0 |
| 20260506160737 | 50 | 22 | 5.2 | 7.8 | 0.00 | 0.00 | 0.28 | 77 | 1020.0 |
| 20260506155738 | 49 | 23 | 5.2 | 7.0 | 0.00 | 0.00 | 0.28 | 76 | 1020.0 |
| 20260506155238 | 49 | 35 | 7.0 | 8.7 | 0.00 | 0.00 | 0.28 | 76 | 1020.0 |
| 20260506154740 | 49 | 31 | 7.0 | 9.6 | 0.00 | 0.00 | 0.28 | 77 | 1020.0 |
| 20260506154239 | 49 | 18 | 5.2 | 7.0 | 0.00 | 0.00 | 0.28 | 78 | 1020.0 |